Temperature
23 22 22 22 23 24 24 23 23 23 24 23 22 22 22 21 21 21 20 20 20 20 21 21 21 21 21 20 20 20 20 19 19 19 18 18 18 18 18 18 18 17 17 17
22 22 23 24 24 24 24 23 23 23 24 23 22 22 22 22 21 21 21 21 20 20 21 21 21 21 21 21 20 20 20 19 19 19 19 18 18 18 18 18 17 17 17 17
23 24 25 25 24 24 23 23 23 23 23 23 23 22 22 22 22 22 22 21 21 21 21 21 21 21 21 21 21 20 20 19 19 19 18 18 18 18 18 18 17 17 17 17
23 24 25 25 24 24 23 24 24 23 22 21 22 21 22 21 21 21 21 21 21 21 21 21 21 21 21 21 21 20 20 20 19 19 18 18 18 18 18 18 17 17 17 17
24 24 25 25 25 25 24 24 23 23 21 21 21 21 21 20 21 21 21 21 22 22 22 22 22 22 22 21 21 20 20 20 19 19 19 18 18 18 18 17 17 17 17 17
24 25 25 25 25 25 24 23 22 20 20 21 21 21 21 20 21 21 21 21 22 22 22 22 22 22 22 21 21 20 20 20 19 19 19 18 18 18 18 17 17 17 17 17
24 25 25 25 25 24 23 22 21 21 20 21 20 21 20 21 21 22 21 22 22 22 22 22 22 22 22 21 21 21 20 20 20 19 19 18 18 18 18 17 17 17 17 17
23 23 25 25 25 24 23 22 21 22 21 20 20 20 21 22 22 22 22 22 22 22 22 22 22 22 22 22 21 21 21 20 20 19 19 18 18 18 18 17 17 17 17 17
22 23 25 25 25 24 23 21 21 20 20 20 20 20 21 21 21 21 21 21 21 22 22 22 22 22 22 22 21 21 21 20 20 19 19 19 18 18 18 17 17 17 17 17
22 23 24 24 24 23 23 20 19 19 20 21 21 21 20 21 21 21 20 20 21 22 22 22 22 22 22 21 21 21 20 20 20 19 19 18 18 18 18 17 17 17 17 16
22 22 23 23 24 23 22 21 18 17 18 19 20 21 21 20 20 20 20 20 21 21 21 21 21 21 21 21 21 20 20 20 19 19 19 18 18 18 18 17 17 17 17 16
20 19 21 22 22 23 22 21 19 20 19 18 19 20 21 20 20 20 20 21 21 21 21 21 21 21 21 20 20 20 20 20 19 19 19 18 18 18 18 17 17 17 16 16
20 19 20 22 22 22 22 20 19 17 17 16 18 20 20 19 19 20 20 20 21 21 21 21 20 20 20 20 20 20 19 19 19 19 18 18 18 18 17 17 17 16 16 16
20 18 20 22 21 21 22 21 19 18 18 18 18 20 20 19 19 19 20 20 20 20 20 20 20 20 20 20 20 19 19 19 19 19 18 18 18 18 17 17 17 16 16 16
20 20 20 20 21 21 21 21 20 20 19 19 20 19 19 19 18 19 19 19 19 19 20 20 20 20 20 20 19 19 19 19 18 18 18 18 18 17 17 17 17 16 16 16
17 19 20 21 21 21 21 21 21 21 20 19 20 19 19 19 19 19 19 19 19 19 20 20 20 20 20 19 19 19 19 18 18 18 18 18 17 17 17 17 16 16 16 16
16 18 19 19 20 21 20 20 20 20 20 19 20 19 18 18 18 18 19 19 19 20 20 20 20 20 20 19 19 19 19 18 18 18 18 17 17 17 16 16 16 16 16 16
16 15 15 17 20 20 20 20 20 20 20 19 19 18 18 18 19 19 20 20 20 20 20 20 20 20 19 19 19 19 18 18 18 17 17 17 17 16 16 16 16 16 16 15
14 15 15 15 18 19 19 20 19 19 19 19 18 18 18 18 18 19 20 20 21 21 20 20 20 19 19 19 18 18 18 18 17 17 17 17 17 16 16 16 16 16 15 15
14 14 15 15 18 18 19 20 20 19 19 19 18 17 17 18 17 18 20 20 20 20 20 20 19 19 19 18 18 18 17 17 17 17 17 16 16 16 16 16 16 15 15 15
16 15 15 15 17 17 18 19 19 19 19 19 19 18 17 17 18 20 20 20 20 20 20 19 19 19 18 18 17 17 17 17 16 16 16 16 16 15 15 15 15 15 15 15
15 15 14 14 16 17 18 18 18 18 19 19 19 19 18 19 19 19 20 20 20 19 19 19 19 18 18 17 17 17 17 17 16 16 16 16 15 15 15 15 15 15 15 14
14 14 14 14 16 16 17 18 19 19 18 19 19 19 19 19 19 19 19 19 19 19 19 19 18 18 18 17 17 17 16 16 16 16 15 15 15 15 15 14 14 14 14 14
14 13 13 13 15 16 17 18 19 19 19 19 19 19 19 19 19 19 18 18 18 18 18 18 18 18 17 17 17 16 16 16 16 16 15 15 15 14 14 14 14 14 14 14
13 13 13 13 14 16 17 18 18 19 19 19 19 19 19 19 18 18 18 18 18 18 17 17 17 17 17 17 16 16 16 16 15 15 15 15 14 14 14 14 14 13 13 13
12 13 13 14 15 14 16 17 18 18 18 19 19 18 18 18 18 18 18 18 18 17 17 17 17 17 16 16 16 16 15 15 15 15 15 14 14 14 14 14 13 13 13 13
Wind_Speed
2 3 3 6 7 5 3 2 4 5 2 1 3 5 5 7 8 9 9 9 10 10 7 7 7 7 7 6 5 5 5 4 4 3 2 2 1 0 0 1 1 2 2 3
4 3 7 4 4 3 2 2 3 3 1 1 2 5 5 7 10 10 11 11 11 8 7 7 7 7 8 8 7 6 6 6 5 3 3 2 2 1 1 0 0 1 2 3
6 6 3 3 2 3 4 5 5 3 3 3 1 5 3 4 5 6 7 8 9 11 11 9 9 8 8 8 8 8 7 6 5 5 3 3 2 2 1 1 0 0 1 2
5 5 3 3 4 5 6 6 5 3 2 2 1 3 6 4 4 7 7 7 8 9 9 9 9 9 9 9 8 7 7 7 6 6 5 5 4 3 2 1 1 0 1 1
6 4 4 5 7 7 6 0 3 3 3 1 1 2 8 2 5 8 8 9 8 8 9 10 11 11 9 8 8 7 7 6 6 6 6 5 4 3 1 1 1 0 0 0
6 4 5 6 3 4 3 6 6 6 4 1 3 3 7 4 7 6 8 9 9 9 9 9 8 8 7 7 7 7 7 6 6 6 6 6 6 5 3 2 1 0 0 0
4 4 3 3 0 2 5 6 4 4 3 5 2 3 8 6 6 8 8 9 9 8 8 8 8 8 8 8 8 8 8 7 6 6 6 7 7 6 6 4 3 2 1 1
3 6 4 4 6 5 5 8 7 5 5 5 1 5 7 5 5 4 5 6 7 7 7 7 8 9 9 9 8 8 8 7 7 7 6 6 6 5 4 4 4 3 3 3
6 6 4 2 2 7 6 4 5 6 2 1 5 6 7 3 2 1 3 5 6 6 7 7 7 7 7 8 8 8 8 7 7 7 6 5 5 5 5 4 3 3 3 3
8 5 5 2 4 3 4 8 6 6 4 3 5 5 5 5 4 2 3 4 4 4 4 4 4 5 5 6 6 6 6 7 6 6 6 6 5 5 5 4 4 3 3 3
6 5 4 2 2 4 3 4 5 5 5 5 4 7 5 7 5 5 5 5 6 5 5 5 4 4 5 4 5 5 5 5 5 5 5 5 5 4 4 4 4 4 4 4
5 5 3 5 4 3 4 6 7 5 4 5 4 7 5 4 3 4 4 4 4 5 5 5 5 4 4 4 4 5 5 6 5 5 5 5 4 4 4 4 4 4 4 4
6 6 1 5 5 2 2 3 4 6 5 5 5 7 2 0 1 2 3 3 3 4 5 4 4 4 4 4 3 3 4 5 4 5 5 5 4 4 4 4 4 4 4 3
6 5 6 8 7 4 2 2 5 6 4 5 8 7 5 4 3 2 2 2 3 4 4 5 4 4 4 4 4 3 3 4 4 4 5 5 5 5 5 4 4 4 4 3
5 3 4 4 4 4 3 4 5 6 7 8 8 8 8 7 5 4 3 2 4 4 4 5 5 4 3 3 3 3 3 3 4 5 5 5 4 4 3 3 3 3 3 4
3 4 2 2 1 2 2 4 5 5 5 5 3 6 6 3 2 3 4 4 5 5 5 5 5 5 5 4 4 3 4 4 4 4 5 4 3 3 3 3 3 3 3 3
2 5 3 3 3 2 3 4 5 3 3 5 6 6 3 2 4 5 5 5 5 6 6 6 6 6 6 5 5 5 5 4 4 4 3 3 3 3 4 4 3 3 3 3
6 5 4 2 2 5 7 2 3 3 2 3 3 3 5 5 3 2 3 4 4 4 5 5 5 5 4 4 3 3 4 4 4 4 3 3 3 4 3 2 3 3 3 3
5 7 5 4 3 5 6 2 3 4 3 2 3 2 1 2 3 2 2 3 4 4 4 4 4 4 4 4 3 3 3 3 3 3 3 3 3 3 3 3 4 3 3 3
5 5 6 4 4 6 7 3 2 4 3 4 4 4 3 4 2 4 3 2 2 2 2 3 3 3 3 3 4 4 3 2 3 4 3 2 3 3 4 4 4 2 2 3
3 3 3 4 4 6 6 3 2 4 6 3 3 5 6 5 6 4 2 2 3 3 2 3 3 3 4 4 5 4 3 4 4 3 2 1 2 4 4 3 2 2 2 2
4 4 3 4 3 7 3 2 4 6 3 2 3 4 4 4 3 2 3 3 3 3 3 4 4 3 3 4 6 5 4 4 2 2 1 1 2 3 2 2 2 2 2 2
4 6 5 7 6 4 2 3 4 3 3 3 3 3 4 3 3 3 3 4 4 4 4 4 4 3 2 4 6 6 5 4 3 3 2 2 2 2 1 2 3 2 2 2
2 1 2 2 4 4 4 4 3 2 3 3 3 3 3 3 3 3 3 3 3 3 3 3 3 3 3 3 5 5 4 4 4 4 3 2 2 2 2 2 3 3 3 4
4 2 1 2 5 5 4 3 3 3 1 1 1 2 3 3 3 4 4 4 4 3 3 3 4 5 5 4 4 3 3 3 4 3 3 2 3 3 3 2 3 4 5 5
4 5 5 6 6 3 6 5 4 3 2 2 1 1 1 3 4 4 4 4 4 3 3 3 4 4 4 4 4 4 3 4 4 3 3 3 3 3 3 3 2 4 5 5
Wind_Direction
77 89 202 217 202 206 191 208 259 259 232 147 235 243 230 197 192 198 195 194 198 204 199 185 182 178 171 171 167 169 169 171 156 140 141 141 163 186 90 213 207 186 173 163
47 261 234 208 192 190 193 236 265 299 35 141 260 267 232 199 204 206 198 198 200 198 190 189 187 180 181 182 179 176 180 178 172 167 157 145 141 147 161 282 114 187 180 174
199 236 206 169 183 191 236 210 225 226 8 27 8 315 269 237 217 212 205 199 197 199 199 195 191 190 187 187 188 190 187 181 175 160 129 105 86 66 65 47 9 271 172 162
230 246 199 204 229 192 256 236 199 158 99 309 58 288 285 250 233 220 215 207 205 206 200 195 191 192 193 194 189 186 181 180 176 161 153 150 159 174 203 195 196 37 146 175
240 214 199 225 232 193 227 187 128 123 124 33 345 194 283 275 243 237 219 209 205 201 197 195 194 194 194 188 183 178 175 179 175 169 171 164 167 178 165 127 107 77 19 51
241 225 205 220 237 183 162 69 57 54 77 294 239 186 273 240 225 230 217 210 203 197 195 194 192 188 187 180 176 172 173 185 181 175 175 173 174 169 157 166 177 220 249 356
297 275 234 185 160 22 107 96 41 4 6 252 254 212 252 253 236 221 213 209 201 192 188 188 184 182 185 182 181 178 177 187 184 178 183 185 183 177 182 190 194 195 210 235
218 276 238 191 185 185 165 147 161 196 219 266 279 237 258 275 267 231 201 190 182 180 184 188 187 187 190 188 184 182 182 187 182 181 190 192 185 187 198 196 190 195 212 228
188 248 276 227 180 146 144 168 161 136 145 248 273 281 301 319 350 70 147 159 176 181 186 186 182 185 187 188 186 183 181 185 184 184 184 189 190 192 198 196 193 200 216 230
169 232 285 300 72 48 137 143 109 126 154 243 280 272 257 274 267 233 176 172 181 176 178 174 172 177 175 180 179 169 174 182 184 182 187 195 199 201 196 184 196 208 227 240
150 179 291 19 156 196 117 103 108 117 148 163 240 267 233 223 231 215 207 194 187 180 175 171 164 165 159 157 164 170 178 180 183 186 187 190 193 191 187 194 207 213 221 222
151 137 238 265 264 203 163 163 148 156 206 178 186 262 280 208 224 209 207 195 177 164 167 167 154 146 147 162 171 175 180 185 193 192 191 197 198 186 189 201 209 209 219 223
139 123 90 336 337 9 93 134 146 133 126 160 181 259 310 16 212 214 204 195 167 149 146 142 138 149 155 163 166 174 188 193 189 180 187 196 203 201 202 206 210 210 217 223
125 124 169 199 218 212 216 194 168 143 159 199 219 240 279 269 244 253 232 196 169 155 148 143 150 159 161 167 166 162 180 184 176 171 182 198 208 208 210 209 212 216 215 218
110 156 205 225 220 177 199 216 191 188 193 199 226 222 244 240 221 215 203 176 156 155 155 162 168 173 166 159 164 167 171 169 170 169 183 207 214 207 202 207 215 216 212 220
84 148 154 292 274 183 210 233 207 208 202 215 227 251 253 244 172 183 187 175 179 186 179 175 173 169 174 177 176 170 174 181 167 174 196 205 198 201 209 209 210 212 217 222
110 129 136 239 298 38 263 235 202 197 195 181 206 233 225 207 210 205 196 186 192 194 187 182 184 185 186 188 182 180 183 176 168 178 193 196 196 204 217 214 205 214 220 221
140 124 133 157 105 222 242 252 180 176 225 209 220 229 209 214 219 207 185 188 202 199 189 187 185 185 186 181 175 174 166 166 174 181 189 198 200 212 216 212 222 226 221 222
145 138 126 133 187 260 290 260 172 174 268 248 216 237 202 92 60 344 247 204 211 203 195 188 187 185 175 170 165 149 157 166 176 195 205 212 206 207 208 217 230 227 217 226
69 99 120 132 166 227 245 269 214 134 255 255 199 198 177 122 149 260 251 202 211 183 166 160 151 147 153 161 147 139 150 162 205 221 221 220 206 207 216 222 222 216 210 221
50 59 124 160 201 254 258 281 115 162 237 257 207 195 179 189 211 223 184 175 169 150 141 141 141 161 176 164 152 158 171 207 228 231 228 233 225 217 216 216 213 216 214 220
172 162 176 150 182 249 267 115 172 217 257 236 214 202 196 220 228 194 171 171 163 156 156 156 157 176 179 166 163 176 208 222 213 195 217 240 237 232 222 208 223 216 204 217
192 192 185 188 210 248 281 232 250 214 225 240 217 214 198 200 209 195 185 179 179 177 176 170 165 170 183 178 173 189 219 211 177 167 205 237 234 222 205 206 219 223 215 224
276 137 140 245 266 273 291 291 289 241 237 254 227 211 193 205 207 192 181 187 188 189 185 177 169 178 201 206 201 205 206 190 178 188 206 214 213 224 220 219 218 213 220 228
230 166 151 259 281 312 320 317 301 312 323 331 280 218 198 191 205 199 194 199 200 196 194 187 193 201 214 215 220 219 200 182 192 203 208 212 212 214 218 228 233 233 235 224
209 184 184 224 230 224 269 290 302 296 285 258 247 280 219 195 206 200 203 209 198 199 203 205 207 210 219 211 216 219 203 189 190 205 213 218 218 219 217 226 265 259 242 246
Height
1493 1499 1504 1501 1499 1499 1502 1506 1509 1503 1496 1499 1502 1501 1497 1497 1498 1499 1500 1502 1503 1505 1508 1510 1512 1514 1516 1518 1520 1521 1523 1524 1525 1526 1527 1528 1529 1530 1530 1531 1532 1532 1533 1534
1499 1501 1494 1493 1494 1497 1501 1507 1507 1501 1496 1499 1502 1500 1495 1494 1494 1495 1496 1499 1501 1503 1506 1508 1510 1512 1514 1516 1518 1520 1521 1523 1524 1525 1526 1527 1528 1529 1530 1531 1531 1532 1533 1533
1498 1494 1489 1492 1495 1499 1501 1504 1504 1504 1500 1500 1503 1504 1497 1493 1493 1494 1495 1497 1499 1501 1503 1505 1507 1509 1511 1513 1516 1518 1520 1521 1523 1524 1526 1527 1527 1528 1529 1530 1531 1531 1532 1533
1494 1488 1489 1492 1495 1495 1503 1493 1495 1499 1508 1515 1509 1522 1502 1496 1494 1493 1494 1495 1496 1498 1500 1502 1504 1507 1509 1511 1514 1516 1518 1520 1521 1523 1524 1525 1526 1527 1528 1529 1530 1531 1532 1532
1491 1487 1488 1491 1489 1489 1493 1489 1494 1499 1509 1516 1513 1520 1510 1497 1496 1492 1490 1491 1493 1495 1497 1499 1501 1504 1507 1509 1511 1514 1516 1518 1520 1521 1522 1524 1525 1526 1528 1528 1529 1530 1531 1532
1485 1482 1483 1483 1481 1484 1487 1493 1500 1508 1515 1526 1515 1520 1514 1500 1492 1487 1486 1488 1489 1492 1494 1496 1499 1502 1505 1507 1509 1512 1514 1516 1517 1519 1521 1522 1523 1525 1526 1527 1528 1529 1530 1530
1489 1483 1479 1479 1484 1485 1489 1506 1524 1527 1533 1529 1514 1517 1509 1488 1484 1482 1482 1484 1486 1488 1491 1493 1496 1499 1502 1505 1507 1509 1511 1513 1515 1517 1519 1520 1522 1523 1525 1526 1527 1528 1528 1529
1498 1497 1480 1477 1481 1487 1491 1500 1522 1533 1535 1527 1516 1516 1498 1483 1480 1478 1480 1482 1484 1486 1489 1491 1494 1496 1499 1502 1505 1507 1509 1511 1513 1515 1517 1519 1520 1522 1523 1524 1525 1526 1527 1528
1497 1495 1477 1474 1475 1479 1491 1498 1499 1517 1523 1528 1521 1509 1492 1481 1479 1478 1479 1481 1482 1485 1487 1490 1492 1495 1497 1500 1502 1504 1507 1509 1511 1513 1515 1517 1519 1520 1521 1522 1523 1524 1525 1526
1484 1491 1480 1475 1475 1479 1483 1492 1506 1517 1529 1532 1521 1512 1504 1488 1483 1480 1480 1480 1481 1484 1486 1488 1490 1493 1495 1498 1500 1502 1505 1507 1509 1511 1513 1515 1516 1518 1519 1520 1521 1522 1522 1523
1478 1489 1486 1481 1483 1486 1488 1494 1503 1514 1517 1529 1531 1515 1486 1484 1481 1479 1478 1479 1480 1482 1484 1486 1489 1491 1494 1496 1498 1500 1503 1505 1507 1509 1511 1512 1514 1515 1516 1517 1518 1519 1520 1520
1478 1489 1496 1487 1478 1476 1480 1487 1498 1509 1516 1520 1523 1511 1478 1478 1477 1477 1477 1478 1479 1480 1483 1486 1488 1490 1492 1494 1496 1498 1501 1502 1504 1506 1508 1510 1511 1513 1514 1515 1515 1516 1517 1518
1476 1489 1502 1498 1492 1482 1483 1486 1491 1499 1511 1520 1520 1505 1478 1477 1477 1477 1477 1478 1479 1480 1482 1485 1487 1489 1490 1493 1494 1496 1499 1500 1502 1504 1505 1507 1508 1510 1511 1512 1513 1514 1514 1514
1470 1485 1494 1499 1494 1486 1486 1486 1489 1495 1507 1512 1506 1495 1482 1479 1478 1477 1477 1477 1478 1480 1481 1483 1485 1487 1489 1492 1493 1495 1496 1498 1500 1501 1503 1504 1505 1507 1508 1509 1510 1511 1511 1511
1470 1483 1483 1482 1479 1480 1482 1482 1484 1488 1491 1497 1491 1490 1481 1477 1476 1476 1476 1477 1478 1479 1480 1482 1484 1486 1488 1490 1491 1493 1495 1496 1498 1499 1500 1502 1503 1504 1505 1506 1507 1507 1508 1508
1472 1480 1482 1482 1478 1478 1480 1479 1479 1481 1483 1485 1484 1484 1475 1474 1474 1475 1475 1476 1477 1478 1479 1481 1483 1485 1486 1488 1489 1491 1493 1495 1496 1497 1498 1499 1500 1501 1502 1503 1504 1504 1504 1505
1478 1481 1488 1491 1483 1481 1488 1479 1478 1478 1477 1479 1482 1478 1473 1473 1473 1473 1473 1475 1475 1476 1478 1479 1480 1483 1485 1486 1488 1489 1491 1492 1494 1495 1496 1497 1498 1499 1500 1500 1501 1501 1501 1502
1477 1484 1492 1495 1490 1497 1483 1471 1471 1474 1474 1473 1473 1472 1471 1471 1471 1472 1472 1473 1474 1475 1476 1478 1479 1481 1483 1485 1486 1488 1489 1490 1491 1492 1493 1494 1495 1496 1497 1497 1498 1498 1499 1499
1471 1480 1492 1498 1497 1490 1478 1470 1470 1474 1475 1471 1471 1470 1471 1470 1471 1472 1472 1472 1473 1474 1475 1477 1478 1480 1481 1483 1484 1486 1487 1488 1489 1490 1491 1491 1492 1493 1494 1494 1494 1495 1496 1496
1473 1476 1488 1496 1495 1496 1479 1467 1466 1470 1477 1468 1468 1469 1469 1470 1476 1472 1470 1471 1472 1473 1474 1476 1477 1478 1479 1481 1483 1484 1485 1486 1487 1487 1488 1489 1489 1490 1491 1491 1492 1492 1493 1493
1480 1483 1488 1492 1492 1485 1470 1466 1466 1480 1477 1466 1466 1466 1468 1468 1469 1468 1469 1470 1471 1472 1473 1475 1476 1477 1478 1480 1482 1483 1484 1484 1485 1485 1486 1486 1487 1488 1488 1489 1489 1490 1490 1490
1481 1485 1489 1491 1492 1486 1466 1466 1470 1469 1464 1463 1464 1464 1466 1466 1466 1466 1467 1468 1469 1470 1472 1473 1474 1475 1477 1478 1480 1481 1481 1482 1482 1483 1483 1483 1484 1485 1485 1486 1487 1487 1487 1487
1477 1477 1478 1480 1478 1468 1466 1465 1464 1464 1463 1462 1462 1463 1464 1464 1465 1465 1466 1467 1468 1469 1470 1471 1472 1473 1474 1476 1477 1478 1479 1479 1479 1480 1480 1480 1481 1481 1482 1483 1483 1483 1484 1484
1472 1471 1473 1474 1469 1465 1464 1463 1462 1462 1461 1461 1461 1462 1462 1462 1463 1463 1464 1465 1467 1467 1469 1470 1471 1471 1472 1473 1474 1476 1476 1477 1477 1476 1476 1477 1477 1478 1479 1480 1480 1479 1480 1480
1471 1471 1472 1472 1468 1464 1462 1462 1462 1461 1461 1460 1460 1461 1461 1461 1461 1462 1463 1464 1465 1466 1467 1468 1469 1469 1470 1471 1472 1473 1474 1474 1473 1473 1473 1473 1474 1475 1476 1477 1477 1477 1477 1477
1467 1468 1470 1469 1465 1465 1462 1461 1461 1460 1459 1459 1459 1459 1459 1460 1460 1461 1461 1462 1463 1465 1465 1466 1466 1467 1468 1468 1469 1470 1470 1470 1470 1470 1470 1470 1471 1471 1472 1472 1473 1473 1474 1474